Weather History for Wellsville, NY

Change the Weather History Date:

Sunday, December 8, 2013

  Actual Average (KBFD) Record (KBFD)
Temperature  
Mean Temperature 20 °F 28 °F  
Max Temperature 24 °F 35 °F 60 °F (1966)
Min Temperature 17 °F 21 °F -2 °F (1970)
Degree Days  
Heating Degree Days 44 32  
Month to date heating degree days 247  
Since 1 July heating degree days 2082  
Cooling Degree Days 0 0  
Month to date cooling degree days 0  
Year to date cooling degree days 193  
Moisture  
Dew Point 15 °F    
Average Humidity 79    
Maximum Humidity 86    
Minimum Humidity 66    
Precipitation  
Precipitation 0.00 in 0.12 in 0.70 in (1974)
Month to date precipitation 0.94  
Year to date precipitation 42.00  
Sea Level Pressure  
Sea Level Pressure 30.37 in    
Wind  
Wind Speed 7 mph (SSE)    
Max Wind Speed 16 mph    
Max Gust Speed 28 mph    
Visibility 8 miles    
Events Snow    
T = Trace of Precipitation, MM = Missing Value Source: NWS Daily Summary

Daily Weather History Graph

Daily Weather History Graph

Search for Another Location

Airport:

Trip Planner

Search our weather history database for the weather conditions in past years. The results will help you decide how hot, cold, wet, or windy it might be!

Date:

Astronomy

Dec. 08, 2013 Rise Set
Actual Time 7:27 AM EST 4:40 PM EST
Civil Twilight 6:56 AM EST 5:11 PM EST
Nautical Twilight 6:21 AM EST 5:46 PM EST
Astronomical Twilight 5:47 AM EST 6:20 PM EST
Moon 11:42 AM EST (12/8) 11:32 PM EST (12/8)
Length of Visible Light 10h 15m
Length of Day
9h 12m
Waxing Crescent, 40% of the Moon is Illuminated
Dec 8
Waxing Crescent
Dec 9
First Quarter
Dec 17
Full
Dec 25
Last Quarter
Jan 1
New

Hourly Weather History & Observations

Time (EST) Temp. Windchill Dew Point Humidity Pressure Visibility Wind Dir Wind Speed Gust Speed Precip Events Conditions
12:56 AM 18.0 °F 9.8 °F 12.9 °F 81% 30.56 in 10.0 mi West 5.8 mph - N/A   Overcast
1:56 AM 19.0 °F 13.9 °F 12.9 °F 77% 30.55 in 7.0 mi West 3.5 mph - 0.00 in Snow Light Snow
2:56 AM 18.0 °F 12.7 °F 12.9 °F 81% 30.56 in 9.0 mi WSW 3.5 mph - 0.00 in   Overcast
3:56 AM 18.0 °F - 12.0 °F 78% 30.54 in 10.0 mi Calm Calm - 0.00 in   Mostly Cloudy
4:05 AM 17.6 °F - 12.2 °F 79% 30.43 in 10.0 mi Calm Calm - N/A   Scattered Clouds
4:56 AM 17.1 °F 11.7 °F 12.0 °F 81% 30.55 in 10.0 mi North 3.5 mph - N/A   Clear
5:56 AM 17.1 °F - 12.0 °F 81% 30.56 in 10.0 mi Calm Calm - N/A   Clear
6:56 AM 17.1 °F - 12.9 °F 84% 30.57 in 10.0 mi Calm Calm - N/A   Clear
7:56 AM 17.1 °F 8.7 °F 12.9 °F 84% 30.57 in 10.0 mi South 5.8 mph - N/A   Clear
8:56 AM 18.0 °F 12.7 °F 12.9 °F 81% 30.57 in 10.0 mi SSE 3.5 mph - N/A   Clear
9:56 AM 19.0 °F 11.1 °F 12.9 °F 77% 30.55 in 10.0 mi SE 5.8 mph - N/A   Partly Cloudy
10:56 AM 19.9 °F 14.9 °F 12.9 °F 74% 30.56 in 10.0 mi SSE 3.5 mph - N/A   Overcast
11:56 AM 21.0 °F 13.4 °F 12.0 °F 68% 30.52 in 10.0 mi SSE 5.8 mph - N/A   Overcast
12:56 PM 21.9 °F 13.4 °F 12.9 °F 68% 30.47 in 10.0 mi ESE 6.9 mph - N/A   Mostly Cloudy
1:56 PM 21.9 °F 12.5 °F 12.0 °F 66% 30.46 in 10.0 mi SSE 8.1 mph - N/A   Overcast
2:56 PM 21.9 °F 13.4 °F 12.9 °F 68% 30.45 in 10.0 mi SE 6.9 mph - N/A   Overcast
3:56 PM 21.9 °F 11.0 °F 12.0 °F 66% 30.42 in 10.0 mi SE 10.4 mph - N/A   Overcast
4:56 PM 21.9 °F 12.5 °F 12.0 °F 66% 30.41 in 10.0 mi SE 8.1 mph - N/A   Overcast
5:56 PM 21.9 °F 11.0 °F 12.0 °F 66% 30.39 in 10.0 mi SE 10.4 mph - N/A   Overcast
6:56 PM 21.0 °F 8.6 °F 15.1 °F 78% 30.37 in 5.0 mi SSE 12.7 mph - 0.00 in Snow Light Snow
7:56 PM 21.0 °F 10.6 °F 15.1 °F 78% 30.34 in 5.0 mi SE 9.2 mph - 0.00 in Snow Light Snow
8:14 PM 21.2 °F 9.5 °F 15.8 °F 80% 30.22 in 5.0 mi SE 11.5 mph 19.6 mph 0.00 in Snow Light Snow
8:30 PM 21.2 °F 9.5 °F 15.8 °F 80% 30.21 in 4.0 mi SE 11.5 mph 19.6 mph 0.00 in Snow Light Snow
8:56 PM 21.0 °F 8.6 °F 16.0 °F 81% 30.31 in 4.0 mi SSE 12.7 mph - 0.00 in Snow Light Snow
9:18 PM 21.2 °F 10.1 °F 15.8 °F 80% 30.19 in 4.0 mi SSE 10.4 mph 21.9 mph 0.00 in Snow Light Snow
9:48 PM 21.2 °F 8.3 °F 17.6 °F 86% 30.18 in 1.8 mi SE 13.8 mph - 0.00 in Snow Light Snow
9:56 PM 21.0 °F 9.3 °F 17.1 °F 85% 30.29 in 1.5 mi SE 11.5 mph - 0.00 in Snow Light Snow
10:04 PM 21.2 °F 8.3 °F 17.6 °F 86% 30.18 in 3.0 mi SSE 13.8 mph - 0.00 in Snow Light Snow
10:11 PM 21.2 °F 10.1 °F 17.6 °F 86% 30.17 in 8.0 mi SSE 10.4 mph - 0.00 in   Overcast
10:21 PM 21.2 °F 8.9 °F 17.6 °F 86% 30.17 in 1.8 mi SSE 12.7 mph - 0.00 in Snow Light Snow
10:46 PM 21.2 °F 9.5 °F 17.6 °F 86% 30.14 in 2.5 mi SSE 11.5 mph 18.4 mph 0.00 in Snow Light Snow
10:54 PM 21.2 °F 8.3 °F 17.6 °F 86% 30.13 in 4.0 mi SSE 13.8 mph 21.9 mph 0.00 in Snow Light Snow
10:56 PM 21.9 °F 8.7 °F 18.0 °F 85% 30.23 in 5.0 mi SSE 15.0 mph 23.0 mph 0.00 in Snow Light Snow
11:27 PM 24.8 °F 11.9 °F 19.4 °F 80% 30.11 in 10.0 mi SSE 16.1 mph 26.5 mph 0.00 in   Overcast
11:40 PM 24.8 °F 12.4 °F 19.4 °F 80% 30.10 in 10.0 mi SSE 15.0 mph 23.0 mph 0.00 in   Overcast
11:56 PM 24.1 °F 12.0 °F 19.9 °F 84% 30.20 in 10.0 mi South 13.8 mph 27.6 mph 0.00 in   Overcast